Temp
18 16 17 18 19 20 21 22 22 24 25 25 25 25 26 27 26 26 27 28 28 28 27 28 29 31 30 30 31 31 29 27 26 23 23 23 22 22 22 22 22 22 22 21
16 16 19 20 20 19 19 19 19 21 24 24 24 25 26 27 27 28 28 28 27 25 25 26 27 27 29 29 29 28 27 25 24 23 23 23 23 22 23 23 22 22 22 21
15 18 20 19 19 19 19 19 20 20 23 24 23 23 24 26 26 27 26 26 26 26 26 26 24 23 24 26 26 26 24 23 23 23 23 22 22 23 23 22 22 21 22 21
15 17 18 19 18 20 18 21 21 21 21 20 24 21 24 26 27 28 27 27 25 25 26 25 23 19 22 23 24 24 23 22 22 23 23 22 22 21 22 22 22 22 21 21
16 17 18 18 19 20 19 21 21 22 20 20 21 20 24 24 25 25 26 25 27 28 24 24 21 21 21 22 22 22 22 22 22 22 22 22 22 22 22 22 22 21 20 20
17 18 18 18 20 20 21 20 20 21 19 19 21 20 23 24 25 26 25 25 26 25 25 23 19 20 20 21 21 21 21 21 22 22 22 22 22 21 20 20 20 20 20 20
17 17 18 19 18 19 19 17 16 16 17 19 21 21 23 23 25 26 25 26 25 24 21 19 19 19 18 18 19 20 21 20 22 22 22 22 21 21 20 20 20 20 19 19
15 14 17 19 18 17 16 16 15 16 16 19 22 20 23 25 27 27 28 27 26 24 20 20 20 19 18 18 19 20 20 20 21 21 21 21 21 20 20 20 19 19 19 19
13 15 17 18 18 18 17 16 18 17 19 18 20 22 25 26 27 27 27 25 24 22 19 19 19 18 19 18 18 19 20 20 21 21 21 21 20 20 20 20 20 19 18 18
14 12 16 17 18 18 17 18 17 16 17 17 19 20 22 24 25 25 25 26 21 20 20 19 19 18 19 18 19 20 20 20 21 21 21 21 20 20 20 20 19 18 18 18
14 12 14 15 16 16 16 16 17 16 17 18 18 20 22 23 23 24 26 24 21 21 20 20 19 19 19 18 19 20 20 20 20 21 21 20 20 20 20 19 18 18 18 18
12 10 10 13 15 17 16 15 15 15 17 17 20 21 24 23 23 24 23 22 22 21 21 20 19 19 19 19 19 19 20 20 21 21 21 20 20 19 19 19 18 18 19 18
11 10 9 11 14 14 15 16 15 14 16 18 18 20 24 24 24 26 23 22 22 21 20 20 20 19 19 19 19 19 20 21 21 21 21 20 20 19 19 19 18 18 19 18
9 10 11 9 13 14 13 15 15 14 13 18 20 20 23 25 25 26 23 22 22 22 21 20 20 20 20 20 19 19 20 21 21 21 21 20 20 19 19 18 18 18 19 19
10 10 11 11 12 13 14 14 15 14 15 13 18 17 20 23 25 26 24 23 22 22 21 21 21 20 20 20 20 20 21 21 21 20 21 20 19 19 19 18 18 18 19 19
9 10 11 11 13 14 13 15 14 15 16 16 16 16 21 22 23 24 24 24 23 22 22 22 21 21 20 20 20 20 21 21 21 20 20 19 19 19 19 18 18 18 18 18
9 10 10 11 12 14 13 15 15 17 17 17 16 19 21 21 21 21 24 24 24 23 23 22 22 22 21 21 21 20 21 21 21 20 19 20 19 19 19 18 18 18 18 17
10 10 10 10 11 11 16 15 16 16 18 18 18 19 20 20 20 19 21 25 24 24 23 23 23 22 21 22 21 22 21 21 20 20 20 19 19 19 18 18 17 17 17 17
11 10 11 11 12 13 15 13 13 14 16 17 17 20 21 19 19 19 20 21 24 24 24 23 23 22 22 21 22 22 20 20 19 19 20 19 19 19 18 18 17 17 16 16
13 12 11 11 12 13 12 13 12 13 14 16 16 18 17 18 18 17 18 20 23 24 24 23 23 22 22 21 22 21 20 19 19 19 20 20 19 19 18 18 17 16 16 15
13 12 10 11 12 12 11 9 12 15 15 13 15 16 19 18 17 19 18 19 21 24 24 24 23 22 22 21 22 21 21 19 21 21 20 20 19 19 18 17 17 16 16 15
10 11 12 11 12 12 10 11 12 12 12 13 14 17 18 17 17 19 19 20 21 22 23 24 23 22 21 21 22 20 20 23 22 21 20 20 20 19 18 17 17 16 15 14
11 10 10 9 10 10 10 10 10 11 12 13 13 16 17 17 18 18 18 19 20 21 21 24 23 21 21 21 22 21 22 24 22 21 20 20 19 18 18 17 16 15 15 14
11 12 12 10 11 12 11 11 11 11 11 12 14 18 16 17 18 18 18 20 19 21 21 23 21 21 21 21 22 23 24 23 22 20 19 20 19 18 18 17 16 15 14 14
10 10 11 12 12 12 12 11 11 11 12 13 16 17 18 18 18 17 18 19 19 21 21 23 21 20 21 21 22 24 24 23 20 19 19 18 18 18 17 17 16 16 16 16
11 11 10 10 11 11 11 12 13 11 11 13 15 16 18 18 18 19 18 18 19 20 21 22 22 21 21 22 22 24 24 23 20 18 18 18 17 17 18 17 16 16 16 16
Height
741 754 744 737 742 740 739 738 738 733 726 731 729 720 713 705 707 704 696 691 686 681 673 670 668 670 671 672 674 674 677 682 684 689 695 699 704 710 715 720 723 729 731 735
747 740 732 737 740 746 747 749 746 739 727 727 726 721 706 700 698 692 687 684 681 679 671 665 665 667 664 665 668 671 674 676 681 687 693 699 705 711 715 719 722 724 727 730
744 734 731 738 740 742 739 745 747 748 733 719 730 731 716 695 692 685 681 676 673 670 666 662 663 662 662 662 664 668 672 675 681 689 695 701 706 711 714 717 721 723 726 728
739 731 731 734 738 737 743 733 733 740 749 748 729 746 716 691 682 677 676 670 671 664 656 656 657 660 658 661 665 668 673 679 683 689 695 699 703 709 712 716 719 722 724 726
731 729 731 734 733 728 731 727 731 735 739 744 738 754 684 692 683 680 669 668 658 648 654 651 651 653 658 661 665 670 674 681 685 690 695 699 704 709 711 715 718 721 723 725
726 723 726 728 723 722 723 727 730 731 741 751 732 744 679 687 674 668 665 658 651 648 646 648 649 654 658 663 666 671 677 683 686 692 696 699 704 708 710 714 717 720 722 724
724 724 718 717 728 723 728 742 758 760 753 736 720 732 677 663 656 657 660 652 648 644 648 650 648 653 657 662 667 673 679 684 686 691 696 700 704 707 711 714 717 719 720 721
733 738 720 713 723 729 730 736 748 755 751 728 714 710 676 659 646 643 642 642 640 640 643 646 646 651 657 662 666 674 680 683 687 691 697 701 705 708 711 714 716 718 719 720
737 732 717 715 715 721 724 730 723 735 720 735 708 686 663 649 646 642 639 639 637 639 641 644 648 652 658 663 668 674 679 684 688 692 697 701 705 708 710 713 715 716 718 719
729 740 722 716 714 710 718 714 730 735 741 739 707 696 679 659 650 644 641 630 634 638 642 645 649 654 660 665 669 675 681 684 689 693 697 702 705 707 710 713 715 716 718 720
730 738 731 724 719 718 719 718 719 721 723 719 716 686 657 652 646 641 628 620 627 632 638 642 648 655 661 666 670 677 681 685 690 694 698 701 704 706 710 713 715 716 719 720
737 747 748 728 713 705 712 715 718 724 716 708 694 669 639 643 639 634 632 625 624 626 634 640 648 654 661 666 671 677 682 686 691 695 698 701 704 707 710 713 715 717 718 720
741 750 751 732 710 710 714 708 714 715 706 700 707 672 642 637 637 624 632 628 626 631 638 643 651 655 662 666 672 677 682 686 691 694 698 700 703 707 710 712 714 716 718 720
746 748 739 750 721 719 720 707 710 715 719 690 680 677 651 641 636 625 632 633 626 630 634 642 651 656 661 667 671 676 681 685 690 693 697 700 703 707 710 712 714 715 717 720
742 740 730 728 722 717 712 705 704 711 707 712 679 684 658 642 630 623 622 623 630 633 639 643 649 655 660 665 670 675 680 684 689 693 696 700 704 707 710 712 713 715 718 719
741 735 726 721 710 703 703 692 698 696 693 694 690 681 655 638 628 618 616 617 625 631 636 643 648 654 658 663 667 673 678 683 687 691 696 700 703 707 710 712 713 715 718 720
736 733 729 715 705 690 696 684 683 676 676 676 681 665 647 642 631 629 615 611 618 626 632 639 644 650 656 660 665 671 677 682 686 691 696 699 703 707 710 711 714 716 718 721
723 729 727 719 709 706 673 672 673 671 664 663 660 650 644 643 631 633 619 615 617 621 629 636 642 649 654 659 664 670 675 680 685 691 695 699 703 706 709 711 714 717 720 721
712 723 721 714 692 685 671 681 684 680 664 656 658 634 632 639 634 634 625 614 619 617 622 630 638 645 652 658 663 670 675 680 685 690 694 699 702 705 708 710 714 717 719 722
700 707 714 708 697 685 686 681 689 688 679 659 656 642 636 635 654 648 628 617 617 620 623 629 637 644 650 656 662 668 674 680 684 689 693 697 701 705 708 710 714 717 720 722
699 704 713 707 699 685 689 681 675 670 672 670 660 653 631 635 648 637 626 619 617 617 621 628 635 641 647 654 661 667 672 678 682 687 692 697 701 704 707 710 713 717 720 723
715 706 695 698 688 684 694 674 677 686 678 672 663 649 639 639 633 633 622 620 615 616 622 626 634 641 647 652 659 666 671 675 681 686 691 696 700 704 707 710 714 717 720 723
711 714 713 717 709 706 700 696 690 686 678 673 671 655 638 634 638 631 628 621 618 617 623 628 635 641 647 651 657 663 668 674 680 685 690 695 700 704 707 710 713 717 720 723
718 710 709 716 705 694 692 687 687 682 677 676 671 654 646 646 640 639 631 623 624 626 624 630 636 643 649 652 656 659 666 673 678 683 688 694 699 704 707 710 713 715 718 721
719 713 707 699 695 691 687 683 683 685 675 654 647 647 649 647 638 635 637 631 627 627 632 630 636 641 647 653 656 659 664 671 676 681 687 693 697 702 706 710 712 714 717 718
716 713 714 710 700 700 691 685 674 675 670 666 660 650 645 643 637 635 634 634 631 634 630 630 633 639 644 651 654 658 662 668 674 681 686 691 696 701 704 709 712 714 717 720
Wind_Speed
4 5 18 23 16 14 7 17 8 5 11 14 19 23 18 16 9 13 18 17 18 19 16 23 30 28 17 19 17 20 24 27 27 29 26 26 26 24 23 24 23 20 26 23
5 19 12 7 6 11 13 15 14 9 9 8 13 22 23 22 18 19 21 19 18 8 10 12 13 13 22 24 20 20 24 25 26 30 29 26 25 21 19 18 19 20 23 22
10 5 12 15 12 15 16 18 14 10 10 22 13 12 17 20 13 16 13 13 10 10 14 14 8 18 21 23 23 24 23 25 25 25 23 19 18 17 16 17 16 17 19 20
9 10 14 10 21 13 19 9 12 15 11 16 7 17 21 22 25 21 14 15 10 14 12 9 7 7 20 21 21 22 24 23 25 25 24 24 22 12 14 16 15 15 17 18
8 5 1 12 15 12 20 11 13 14 10 16 17 7 29 7 18 12 14 10 16 17 10 14 10 13 17 26 25 23 27 26 27 25 24 23 19 15 15 15 13 16 14 12
13 9 9 9 10 9 5 9 12 16 3 11 9 10 28 16 22 18 7 14 12 9 10 1 8 18 20 24 26 28 29 27 27 23 19 19 19 15 16 17 16 13 10 9
8 13 14 14 12 10 5 2 2 3 7 15 11 9 23 7 5 10 14 16 12 12 6 9 14 13 17 21 27 30 29 23 23 24 20 17 16 18 19 16 13 10 8 8
2 3 5 2 1 5 6 9 5 7 4 8 7 12 16 16 26 21 22 18 14 8 9 11 14 14 17 22 27 25 27 24 25 23 21 19 16 14 12 11 9 6 6 6
2 4 3 10 6 4 5 9 7 5 14 1 6 9 18 23 24 21 19 12 13 7 11 13 11 12 19 20 25 30 28 26 25 23 19 14 13 12 11 7 4 5 6 8
2 2 6 5 5 6 8 3 4 3 6 8 6 6 10 7 14 10 12 16 7 8 11 12 13 13 18 22 28 28 26 25 23 20 16 13 12 11 8 6 6 8 9 11
3 4 3 5 3 7 1 4 5 4 3 8 6 9 8 12 10 12 17 10 16 16 15 14 13 16 19 22 26 27 26 24 22 19 16 15 12 13 10 7 8 10 12 9
2 3 4 9 16 13 6 9 5 5 11 5 11 16 9 9 10 8 10 9 14 18 17 15 15 13 18 21 23 26 26 25 23 21 16 14 13 12 10 9 9 11 11 11
5 1 4 9 3 3 4 5 1 4 5 19 8 7 8 12 11 17 6 9 13 15 15 15 14 14 13 20 21 24 27 26 25 19 15 16 15 12 11 10 10 14 10 10
3 3 5 5 5 6 8 6 5 0 2 12 18 15 24 19 21 21 7 7 16 17 18 16 14 14 13 20 21 23 27 27 25 21 16 18 16 14 13 10 11 12 9 8
5 4 8 13 17 17 18 18 13 9 8 3 7 8 18 17 17 18 13 17 15 17 17 17 16 14 13 18 21 24 28 27 24 21 20 18 16 14 13 11 11 10 8 9
6 4 6 14 18 18 20 18 14 15 11 11 17 19 17 19 16 7 19 21 20 19 19 18 17 16 15 18 21 24 27 27 25 23 21 18 18 15 13 12 11 11 11 17
6 3 2 6 12 6 6 13 16 6 8 3 7 6 14 13 10 11 16 22 22 21 20 19 18 17 15 21 23 24 28 27 26 26 21 20 20 16 16 15 14 14 17 17
6 6 4 6 8 4 2 10 8 2 10 13 12 18 18 7 4 9 2 11 18 20 19 18 16 14 21 24 25 30 30 29 27 25 23 21 22 18 17 16 15 15 15 14
14 6 3 3 3 4 4 6 6 6 5 4 10 17 6 7 7 9 10 5 7 18 18 17 21 23 24 26 30 29 26 27 26 24 24 23 22 20 20 18 17 16 15 14
13 11 4 3 4 3 2 13 11 13 6 4 15 5 8 9 2 4 11 5 7 15 15 15 23 25 26 25 33 28 25 25 23 25 25 24 22 22 21 18 17 16 16 16
1 1 10 10 5 3 12 21 23 6 6 19 13 14 8 8 5 6 8 4 3 14 16 24 27 26 28 31 31 24 25 22 29 29 26 24 22 22 19 18 17 17 16 15
2 2 2 2 5 3 18 14 8 8 12 12 16 11 8 4 2 6 5 3 3 10 13 25 20 22 26 33 31 23 22 28 27 29 26 26 23 21 20 19 17 18 18 19
3 4 3 2 2 7 5 8 10 11 11 13 15 10 10 12 6 8 4 3 6 12 9 19 19 20 24 30 31 24 30 28 25 29 28 27 25 21 21 21 20 18 19 21
3 2 1 4 6 9 7 9 11 14 13 14 15 4 14 9 4 3 7 7 7 3 9 15 16 14 17 24 30 35 32 28 28 28 30 30 29 24 22 22 21 20 20 20
3 6 6 3 4 10 4 13 12 16 14 15 17 13 12 7 4 7 8 10 8 6 1 16 15 13 18 24 29 35 34 28 30 30 30 28 30 28 26 23 22 20 19 21
1 3 2 3 8 5 11 12 15 14 17 19 19 19 15 9 8 11 9 7 8 6 7 7 19 21 21 23 27 35 34 31 32 25 26 27 28 27 27 23 19 17 16 17
Wind_Direction
210 181 216 210 217 234 257 242 269 209 209 233 244 264 267 253 247 262 266 265 258 256 252 252 251 240 231 231 213 205 202 202 197 186 161 157 161 159 170 176 180 191 199 208
206 230 228 245 229 228 252 267 268 293 284 256 246 253 264 264 261 252 257 258 251 247 260 254 253 201 192 189 191 192 194 189 188 184 175 166 159 164 170 175 189 195 201 206
215 234 215 240 239 244 233 237 253 260 305 290 296 282 284 276 259 261 269 256 267 251 259 261 190 202 179 176 183 183 182 177 177 176 170 155 155 159 175 187 190 197 203 205
252 231 253 246 231 235 248 247 244 251 259 260 212 277 265 268 265 265 245 252 247 246 250 249 211 169 181 174 164 164 169 166 161 165 164 166 169 170 197 207 213 215 203 198
225 293 192 238 245 235 253 253 236 237 235 248 250 293 267 260 261 250 253 250 254 260 236 244 187 182 167 161 156 153 155 161 160 164 167 169 171 184 197 183 189 177 186 206
227 234 247 244 261 262 318 242 240 258 226 251 214 202 272 246 251 251 224 241 252 262 260 190 138 139 143 153 152 152 153 155 160 162 160 169 160 156 147 154 154 166 185 215
234 241 242 246 258 268 221 58 249 253 213 236 170 208 235 256 272 230 237 249 252 247 161 164 147 147 145 143 148 154 152 148 155 154 153 152 133 137 143 151 154 175 210 223
189 286 181 35 137 249 188 180 194 192 205 241 261 230 244 231 260 267 264 245 252 257 169 164 159 149 143 145 146 154 155 142 149 145 135 131 133 137 142 154 163 192 208 214
139 229 332 317 311 148 305 220 201 292 273 275 228 274 279 276 277 274 267 256 247 182 159 152 139 140 143 145 146 153 149 141 140 138 135 136 131 140 137 149 178 202 193 182
169 278 253 291 327 240 198 246 188 198 207 240 252 251 236 232 248 273 268 256 181 140 142 142 140 136 142 145 148 153 153 144 142 143 143 148 150 147 155 163 187 181 168 168
343 142 294 349 247 232 240 217 193 160 211 221 257 251 196 253 244 274 283 242 157 155 154 146 140 140 141 143 146 154 155 151 149 152 160 165 160 161 157 167 172 174 177 183
309 121 276 253 260 252 268 282 175 214 234 248 241 247 304 252 287 293 294 175 159 154 151 144 144 141 145 147 150 158 160 159 161 168 174 170 151 151 152 157 167 174 179 182
352 346 305 319 325 200 248 146 353 287 207 238 248 270 222 276 297 286 166 178 148 143 138 136 145 148 152 153 154 162 166 167 170 170 168 153 153 158 157 166 178 174 174 190
56 246 218 230 274 325 276 271 302 306 266 243 242 270 273 275 271 283 166 201 151 151 147 145 149 155 154 157 157 163 169 171 175 175 163 160 162 164 165 166 168 165 177 193
175 242 237 257 267 273 266 263 246 237 250 249 275 293 273 284 262 270 202 160 153 149 150 153 156 157 156 156 157 164 173 175 177 176 169 165 161 158 164 166 166 163 187 199
171 254 267 275 270 259 245 244 235 237 235 250 256 274 282 267 293 225 177 162 160 158 157 158 157 157 161 160 161 166 176 178 178 171 171 161 157 162 160 157 156 161 158 151
187 213 260 271 336 331 220 236 223 197 182 207 240 237 298 312 357 324 176 165 159 163 160 162 162 162 162 165 163 167 176 176 177 172 170 161 164 165 168 159 155 148 153 146
214 180 215 278 266 235 196 40 63 303 227 213 238 253 262 263 47 306 352 170 161 157 158 162 162 161 161 165 168 175 171 169 168 166 169 171 170 167 170 163 161 165 162 159
210 193 269 257 309 280 268 41 360 356 288 330 299 258 215 53 13 315 317 75 185 164 160 161 161 160 159 163 170 167 157 162 158 165 174 178 175 170 170 162 167 169 162 156
196 207 206 289 285 284 326 330 305 299 246 351 334 19 105 68 77 276 291 10 161 162 158 155 159 157 159 163 164 160 156 158 163 173 180 181 180 177 175 169 170 175 170 162
201 142 225 243 254 209 355 316 283 192 358 322 319 304 83 75 257 248 274 346 224 166 159 156 158 162 164 161 160 162 165 163 177 181 182 180 183 181 179 170 171 171 169 156
315 260 276 245 232 302 360 346 49 322 321 318 318 324 39 63 236 243 264 292 131 147 150 157 157 161 161 161 161 164 170 180 182 183 179 178 181 179 177 170 170 176 170 157
12 338 333 7 291 276 312 343 311 320 345 324 314 312 39 12 328 333 253 17 38 116 125 153 154 154 163 164 166 165 181 184 180 173 175 176 177 178 175 168 170 172 173 167
271 333 268 203 216 336 318 325 335 340 329 308 293 326 52 333 329 313 12 48 70 33 108 131 138 155 167 170 171 176 179 184 177 164 165 172 174 176 175 175 178 176 176 177
252 322 303 259 289 324 243 327 334 310 310 321 339 16 53 327 9 53 33 31 38 43 303 150 156 161 174 175 175 179 181 181 167 164 165 168 176 177 174 180 187 193 195 187
307 273 341 286 325 302 300 319 318 328 338 336 332 341 358 358 24 31 25 33 34 22 334 150 171 168 175 180 181 182 183 183 163 159 164 169 172 176 177 182 187 204 211 206